Location: Navarre
(52.9016°N, 113.4144°W)
Time: 08:15:41
(UTC+00:00)

Envisat - Pass Details

Date: 08 December 2021
Orbit: 764 x 766 km, 98.2° (Epoch: 17 January)

Event Time Altitude Azimuth Distance (km) Brightness Sun altitude
Rises 14:40:38 0° 5° (N) 3,248 6.0 -7.5°
Reaches altitude 10° 14:43:45 10° 346° (NNW) 2,316 5.1 -7.1°
Maximum altitude 14:46:49 16° 308° (NW) 1,904 4.4 -6.7°
Drops below altitude 10° 14:49:54 10° 271° (W) 2,307 5.0 -6.3°
Sets 14:52:59 0° 251° (WSW) 3,229 5.8 -5.9°
